GFSFLT2_sfc_rhum_168.txt.gz
RH
69 71 73 69 63 59 57 55 54 64 63 64 65 68 69 70 69 69 69 68 67 66 65 66 67 67 66
70 76 78 70 66 63 52 47 48 54 62 62 59 66 66 67 69 70 69 68 68 70 71 70 68 66 65
73 67 72 63 63 59 59 53 46 55 62 71 64 65 66 67 67 65 66 68 70 68 69 67 67 66 64
63 62 60 59 68 67 61 59 54 44 56 71 72 73 70 66 65 64 64 66 66 65 66 65 65 64 62
62 62 61 57 58 56 64 58 52 56 51 51 61 58 52 52 55 64 65 67 66 69 71 70 70 69 67
55 50 43 41 45 52 55 53 44 58 53 46 49 50 48 47 66 67 69 69 71 68 68 68 66 65 65
51 43 43 44 46 50 52 53 46 46 48 41 47 47 45 40 75 74 70 69 68 66 68 68 67 66 66
67 56 46 46 50 48 51 50 50 50 54 58 45 46 43 42 74 82 70 68 69 64 65 66 67 68 68
76 74 70 68 62 55 66 65 58 49 60 57 56 55 53 48 55 78 71 69 69 67 66 66 69 69 65
63 72 70 64 71 65 58 82 66 67 64 74 74 70 83 68 62 66 66 74 72 70 66 66 69 63 60
59 55 58 60 64 69 61 74 94 84 65 76 97 87 90 82 72 72 70 68 61 56 60 67 68 68 68
69 66 68 72 75 74 73 67 66 81 63 83 100 95 99 89 75 75 77 71 69 75 74 70 70 70 69
80 80 79 82 92 91 88 84 98 82 77 100 100 99 95 91 85 78 82 79 83 86 82 76 70 64 75
88 84 86 98 94 94 99 94 95 91 99 100 100 97 90 87 85 83 78 89 83 81 80 75 66 60 63
100 98 96 98 96 98 99 100 94 90 92 91 91 93 90 92 90 84 78 81 86 86 84 79 68 62 63
100 100 100 100 100 100 100 99 95 93 91 90 91 90 88 82 86 86 86 89 81 83 83 86 84 69 62
100 100 100 100 100 100 100 98 96 97 94 93 95 94 94 90 86 84 94 90 82 82 77 78 86 79 69

GFSFLT2_sfc_rhum_171.txt.gz
RH
70 73 70 75 69 69 70 66 68 62 63 64 63 68 69 70 71 70 69 68 67 66 69 70 69 69 68
74 81 76 73 69 75 63 48 61 56 61 62 60 66 66 68 69 68 70 71 75 72 71 69 68 68 66
79 75 76 74 72 70 69 70 54 56 55 64 64 65 66 66 66 65 68 70 69 69 68 68 67 65 64
72 74 72 68 73 79 76 75 71 50 50 66 76 73 71 66 64 63 67 67 66 67 68 69 70 69 65
77 76 78 73 76 70 80 72 69 70 71 65 72 77 74 62 55 56 66 66 67 72 69 66 65 65 64
80 75 66 62 57 67 73 74 71 73 71 67 63 72 68 65 51 69 68 70 72 68 67 67 66 66 65
69 64 61 57 58 67 70 74 72 74 67 65 70 69 66 48 59 77 70 71 69 65 66 67 67 66 66
82 72 62 57 58 62 70 73 70 67 67 86 69 71 64 64 58 79 70 71 72 66 63 65 66 67 68
79 78 76 68 67 70 84 87 85 76 78 76 78 77 74 74 73 72 73 73 72 69 67 67 66 68 75
80 80 82 79 73 79 79 90 93 92 85 89 95 93 98 91 81 85 89 74 72 71 71 70 65 81 81
80 77 77 80 81 81 80 93 96 95 85 94 99 98 97 97 95 93 89 87 83 78 67 64 65 69 86
88 88 88 89 91 88 88 85 87 95 82 95 98 99 99 98 95 96 95 91 88 94 94 74 70 68 68
95 95 94 96 93 94 94 91 98 87 83 99 100 99 98 97 97 95 94 97 96 97 97 96 94 87 89
97 95 98 100 99 97 97 97 97 97 99 99 99 97 98 96 97 96 96 97 97 96 96 94 82 81 79
100 100 99 99 99 100 99 98 96 96 98 98 96 96 96 97 98 92 93 94 96 96 94 94 83 80 81
100 100 100 100 99 100 99 98 97 94 97 96 97 97 96 93 86 92 95 96 96 96 96 97 89 81 89
100 100 100 100 100 99 98 98 98 97 97 97 97 96 97 97 98 80 94 98 98 97 95 94 92 81 83

GFSFLT2_sfc_rhum_174.txt.gz
RH
89 88 87 84 84 85 76 79 81 65 58 61 61 68 68 70 70 70 70 72 72 70 70 70 70 70 69
92 91 89 88 88 91 78 68 68 60 57 61 62 66 67 66 66 68 74 72 73 72 71 71 70 69 68
92 91 90 91 91 86 81 85 68 66 54 56 66 66 66 67 65 66 70 69 69 69 69 69 67 66 66
93 93 88 82 85 89 86 86 87 62 54 55 70 74 72 70 65 62 70 67 67 69 70 72 73 71 68
90 89 89 84 82 84 91 87 80 86 84 79 77 92 91 72 65 60 61 66 67 72 68 66 65 64 63
91 90 84 81 78 79 83 83 76 84 82 81 77 82 82 81 60 60 62 70 72 68 67 66 65 65 64
89 86 82 73 68 72 79 83 83 80 75 73 82 79 76 64 59 64 70 72 74 67 64 65 65 65 66
95 88 82 73 64 69 75 81 82 78 73 83 85 80 76 74 56 59 76 73 72 71 64 63 65 67 67
90 88 86 81 71 79 84 90 88 86 86 79 86 81 83 80 78 62 76 72 70 72 69 67 68 67 79
85 85 84 87 78 81 87 94 95 93 88 87 97 94 94 96 88 93 93 73 70 70 71 71 72 82 88
92 92 90 91 95 94 92 91 95 92 88 92 100 98 98 98 97 95 94 93 93 89 74 72 70 70 90
96 94 93 92 93 93 92 93 92 88 89 96 96 98 100 99 95 97 97 94 93 96 96 74 67 70 69
98 96 96 93 93 94 96 92 97 87 86 99 99 99 99 97 97 97 95 97 97 97 98 98 97 93 95
99 98 99 100 99 98 97 98 98 98 98 98 99 98 99 98 98 98 98 94 99 99 98 98 91 90 90
100 100 100 100 99 100 100 99 98 99 99 99 99 98 98 97 100 96 94 97 98 97 98 98 90 88 89
99 100 100 100 100 99 99 99 97 96 99 98 98 98 99 94 89 93 98 98 98 98 98 99 93 89 90
100 100 100 100 100 99 98 98 98 97 97 98 97 98 98 98 96 81 93 98 99 99 97 97 96 84 87

GFSFLT2_sfc_rhum_177.txt.gz
RH
93 89 87 89 87 88 90 89 86 71 65 61 60 61 68 69 68 72 75 74 72 70 70 70 70 70 71
93 94 91 88 91 91 84 78 83 69 66 61 60 63 67 67 66 70 73 75 74 73 71 69 69 68 68
94 94 94 91 90 88 87 86 73 73 66 61 58 66 67 67 65 63 72 68 69 70 71 70 68 68 67
96 95 95 88 90 90 86 88 87 72 65 57 62 75 71 71 68 61 66 68 68 70 72 71 69 68 68
97 94 92 90 85 83 90 91 84 88 89 82 78 82 92 81 77 66 58 68 68 71 67 65 65 65 64
96 95 91 88 85 86 89 83 72 83 86 77 81 82 82 92 75 65 58 61 72 70 66 65 65 65 65
91 93 91 86 81 79 83 82 80 78 76 75 79 77 79 67 69 64 63 65 74 71 65 64 64 64 66
96 93 89 82 77 72 74 81 84 84 77 86 83 83 79 80 68 64 64 70 74 72 68 63 63 66 66
89 91 90 85 85 84 85 89 85 83 87 80 82 83 86 83 79 65 65 72 72 66 73 70 68 69 80
89 83 91 94 88 80 86 92 95 93 88 87 98 93 86 96 90 89 91 72 78 66 70 70 70 91 92
95 94 92 90 92 95 89 90 95 90 86 89 99 99 97 96 98 96 94 94 94 87 74 71 71 76 93
97 97 96 94 93 92 94 95 92 88 87 91 94 96 99 100 92 97 97 96 95 98 97 80 68 66 66
98 97 97 96 95 95 96 93 97 92 92 95 95 99 98 95 94 98 95 96 98 97 98 98 97 93 96
99 99 98 100 99 99 99 98 98 97 95 98 98 96 100 99 98 97 98 91 99 99 98 98 94 94 94
99 99 99 100 99 100 100 99 99 98 99 99 99 99 97 94 100 96 95 97 98 98 98 99 94 90 90
99 100 99 99 100 100 100 99 99 97 97 99 98 98 98 94 92 95 98 97 98 98 99 99 95 86 90
100 100 100 100 100 100 99 99 98 98 97 98 98 98 97 97 93 83 98 98 99 100 98 99 98 86 88

GFSFLT2_sfc_rhum_180.txt.gz
RH
94 92 89 90 88 89 91 92 93 80 72 68 64 62 63 68 67 73 72 71 72 72 71 70 70 71 72
78 94 94 90 92 92 87 83 93 77 74 70 64 62 65 67 66 68 72 71 71 72 71 70 70 69 68
91 96 96 94 92 90 88 89 75 72 69 70 66 62 67 68 68 59 73 68 69 71 73 71 69 69 68
96 98 97 93 93 93 88 86 83 72 69 71 65 65 68 69 71 67 60 70 68 71 70 67 67 66 66
98 98 97 94 92 88 90 90 88 87 88 87 83 81 82 78 82 76 65 63 70 72 66 64 64 65 64
95 96 94 93 92 90 90 88 79 83 88 75 81 76 79 87 76 73 68 57 69 74 67 65 64 64 64
95 96 94 93 90 90 90 87 83 78 81 80 80 76 75 68 70 71 68 65 66 75 69 65 64 64 65
97 95 94 92 89 85 85 85 85 85 83 89 84 79 79 79 67 66 69 66 67 71 71 66 64 65 66
86 89 90 90 89 88 89 90 86 84 89 82 84 84 84 82 78 69 66 64 71 72 67 72 69 68 80
91 88 84 94 92 93 92 91 92 91 90 89 97 96 84 93 92 85 88 72 70 72 68 69 70 84 94
97 96 95 94 93 96 91 91 95 92 88 89 99 98 97 94 95 97 94 93 94 92 77 67 69 72 96
99 98 97 96 95 94 94 92 88 88 88 89 94 94 96 96 90 95 98 96 96 98 98 87 79 72 68
99 99 98 98 96 96 96 95 98 95 91 96 94 96 93 92 90 98 94 95 98 98 98 98 96 92 96
99 98 98 98 99 99 100 99 98 98 98 99 96 96 99 98 94 94 98 90 98 99 98 98 94 96 96
99 98 98 99 100 100 100 100 99 99 99 99 99 98 98 96 99 96 92 97 96 98 98 99 96 95 95
97 98 99 99 99 100 100 100 99 99 99 98 98 98 99 95 92 95 98 97 98 97 99 99 98 96 94
98 99 100 100 100 100 99 99 98 99 98 98 98 98 98 100 89 84 97 99 99 100 98 99 99 92 91